Location: York
(31.8935°S, 116.7682°E)
Time: 16:46:05
(UTC+08:00)

Vanguard 1 - All Passes

Search period start: 25 September 2022 00:00
Search period end: 05 October 2022 00:00
Orbit: 649 x 3832 km, 34.2° (Epoch: 22 September)

Date Brightness Start Highest point End Pass type
(mag) Time Alt. Az. Time Alt. Az. Time Alt. Az.
25 Sep - 02:23:40 10° NNW 02:32:30 43° NE 02:48:01 10° ESE visible
25 Sep - 04:42:27 10° WNW 04:55:12 87° NNE 05:17:31 10° ESE visible
25 Sep - 07:04:25 10° W 07:22:16 84° S 07:46:30 10° E daylight
25 Sep - 09:28:28 10° WSW 09:50:29 74° NNW 10:12:05 10° NE daylight
25 Sep - 11:55:47 10° WSW 12:15:46 37° NW 12:31:54 10° NNE daylight
26 Sep - 00:31:03 10° NE 00:33:40 11° ENE 00:36:42 10° ENE visible
26 Sep - 02:43:36 10° NW 02:52:51 55° NE 03:09:50 10° ESE visible
26 Sep - 05:03:12 10° WNW 05:16:28 87° SSW 05:39:15 10° E visible
26 Sep - 07:25:28 10° W 07:43:55 87° SSE 08:08:02 10° ENE daylight
26 Sep - 09:49:43 10° WSW 10:11:38 66° NNW 10:32:39 10° NE daylight
26 Sep - 12:18:21 10° W 12:36:09 29° NW 12:50:52 10° N daylight
27 Sep - 00:48:05 10° N 00:53:32 19° NE 01:01:13 10° E visible
27 Sep - 03:03:49 10° NW 03:13:25 67° NNE 03:31:31 10° ESE visible
27 Sep - 05:24:03 10° W 05:37:53 84° S 06:01:02 10° E visible
27 Sep - 07:46:31 10° WSW 08:05:28 88° NNW 08:29:24 10° ENE daylight
27 Sep - 10:11:05 10° WSW 10:32:37 56° NW 10:52:55 10° NE daylight
27 Sep - 12:41:54 10° W 12:56:29 21° NW 13:08:58 10° N daylight
28 Sep - 01:06:58 10° N 01:13:29 28° NE 01:23:51 10° E visible
28 Sep - 03:24:15 10° WNW 03:34:13 78° NNE 03:53:10 10° ESE visible
28 Sep - 05:44:58 10° W 05:59:21 83° S 06:22:49 10° E daylight
28 Sep - 08:07:33 10° WSW 08:26:56 82° NNW 08:50:35 10° ENE daylight
28 Sep - 10:32:38 10° WSW 10:53:26 47° NW 11:12:50 10° NNE daylight
28 Sep - 13:07:38 10° WNW 13:16:49 14° NW 13:25:10 10° NNW daylight
29 Sep - 01:26:30 10° NNW 01:33:35 39° NE 01:45:52 10° ESE visible
29 Sep - 03:44:50 10° WNW 03:55:12 88° NNE 04:14:51 10° ESE visible
29 Sep - 06:05:53 10° W 06:20:52 84° S 06:44:35 10° E daylight
29 Sep - 08:28:37 10° WSW 08:48:15 74° NNW 09:11:30 10° NE daylight
29 Sep - 10:54:30 10° WSW 11:14:07 38° NW 11:32:21 10° NNE daylight
30 Sep - 01:46:25 10° NW 01:53:53 51° NE 02:07:35 10° ESE visible
30 Sep - 04:05:31 10° W 04:16:19 86° S 04:36:36 10° E visible
30 Sep - 06:26:48 10° W 06:42:21 87° SSE 07:06:15 10° ENE daylight
30 Sep - 08:49:44 10° WSW 09:09:27 65° NNW 09:32:08 10° NE daylight
30 Sep - 11:16:54 10° W 11:34:43 30° NW 11:51:18 10° N daylight
30 Sep - 23:51:30 10° NNE 23:55:08 15° NE 23:59:46 10° E visible
01 Oct - 02:06:37 10° NW 02:14:22 65° NNE 02:29:11 10° ESE visible
01 Oct - 04:26:18 10° W 04:37:35 83° S 04:58:25 10° E visible
01 Oct - 06:47:42 10° WSW 07:03:46 88° NNW 07:27:45 10° ENE daylight
01 Oct - 09:10:57 10° WSW 09:30:30 56° NW 09:52:27 10° NE daylight
01 Oct - 11:40:13 10° W 11:55:17 22° NW 12:09:26 10° N daylight
02 Oct - 00:10:05 10° N 00:15:07 23° NE 00:22:32 10° E visible
02 Oct - 02:27:01 10° WNW 02:35:04 78° NNE 02:50:45 10° ESE visible
02 Oct - 04:47:05 10° W 04:58:53 82° S 05:20:15 10° E visible
02 Oct - 07:08:37 10° WSW 07:25:07 81° NNW 07:49:02 10° ENE daylight
02 Oct - 09:32:22 10° WSW 09:51:28 46° NW 10:12:24 10° NNE daylight
02 Oct - 12:05:30 10° WNW 12:15:53 15° NW 12:25:49 10° NNW daylight
03 Oct - 00:29:32 10° NNW 00:35:12 34° NE 00:44:29 10° E visible
03 Oct - 02:47:34 10° WNW 02:55:57 88° NNE 03:12:21 10° ESE visible
03 Oct - 05:07:55 10° W 05:20:13 83° S 05:42:05 10° E visible
03 Oct - 07:29:33 10° WSW 07:46:23 72° NNW 08:10:03 10° NE daylight
03 Oct - 09:54:07 10° W 10:12:20 38° NW 10:31:55 10° NNE daylight
04 Oct - 00:49:26 10° NW 00:55:28 47° NE 01:06:06 10° ESE visible
04 Oct - 03:08:13 10° W 03:16:57 85° S 03:34:02 10° E visible
04 Oct - 05:28:43 10° WSW 05:41:31 87° SSE 06:03:50 10° ENE daylight
04 Oct - 07:50:33 10° WSW 08:07:35 63° NNW 08:30:45 10° NE daylight
04 Oct - 10:16:22 10° W 10:33:08 29° NW 10:50:51 10° N daylight
04 Oct - 22:55:27 10° NE 22:57:02 11° NE 22:58:47 10° ENE night (unlit)
